(83) Beatrix
ephemeris date magn radius delta ra dec elong phase
Opposition1 Aug 202511.92.492 AU1.484 AU20h59m-25°38'171.8°3.3°
Today31 Aug 202512.62.517 AU1.617 AU20h32m-26°21'145.8°13.0°
(83) Beatrix - 2025-08-31
astro.vanbuitenen.nl


 
-1 year
-1 month
-1 day
Now
+1 day
+1 month
+1 year

The interactive orbit chart above shows the body's path through the solar system and its position at the given date. Green and blue lines are shown perpendicular to the ecliptic plane: Green if the path is above the ecliptic plane, blue if it is below. (Left-click and drag to rotate the view; Right-click and drag to move the view; Use scroll wheel to zoom in our out.)

The orbital elements of Beatrix are:

            e (Eccentricity)                : 0.0829196
            a (Semimajor axis)              : 2.4319495
            i (Inclination)                 : 4.96650
            Ω (Longitude of ascending node) : 27.66387
            ω (Argument of perihelion)      : 169.95661
            M (Mean anomaly)                : 79.92065
            Epoch                           : 2025 May 05

            L (Longitude of perihelion)     : 17.65742
            B (Latitude of perihelion)      : 0.86508
            P (Orbital period in years)     : 3.79            
        

The light curve chart below shows the estimated development of the minor planet's magnitude.


The all-sky chart below shows the path of the minor planet over the same period as the light curve. The current position is marked yellow.





The following chart shows the path of the minor planet in the next few days. The field of view is optimized for (~10x50) binoculars and finderscopes. A more printer-friendly version of the same chart can be found below.




Ephemerides:
Date       Time       RA (2000)    DEC (2000)    delta   radius  elong  phase   PA    magn
2025-08-31 00:00 UT   20 32 52.0   -26 21 33     1.617    2.517  145.8   13.0    65   12.6 
2025-08-31 23:20 UT   20 32 18.3   -26 20 47     1.625    2.518  144.7   13.4    65   12.6 
2025-09-01 00:00 UT   20 32 17.4   -26 20 45     1.625    2.518  144.7   13.4    65   12.6 
2025-09-02 00:00 UT   20 31 44.4   -26 19 49     1.634    2.518  143.7   13.7    66   12.6 
2025-09-03 00:00 UT   20 31 13.2   -26 18 45     1.642    2.519  142.6   14.1    66   12.6 
2025-09-04 00:00 UT   20 30 43.8   -26 17 32     1.651    2.520  141.6   14.4    67   12.6 
2025-09-05 00:00 UT   20 30 16.1   -26 16 12     1.660    2.521  140.5   14.7    67   12.7 
2025-09-06 00:00 UT   20 29 50.2   -26 14 43     1.669    2.522  139.5   15.0    68   12.7 
2025-09-07 00:00 UT   20 29 26.0   -26 13 08     1.678    2.522  138.5   15.4    68   12.7 
2025-09-08 00:00 UT   20 29 03.7   -26 11 25     1.687    2.523  137.5   15.7    68   12.7 
2025-09-09 00:00 UT   20 28 43.1   -26 09 34     1.697    2.524  136.4   16.0    69   12.8 
2025-09-10 00:00 UT   20 28 24.4   -26 07 37     1.706    2.525  135.4   16.3    69   12.8 
2025-09-11 00:00 UT   20 28 07.5   -26 05 32     1.716    2.526  134.4   16.5    69   12.8 
2025-09-12 00:00 UT   20 27 52.3   -26 03 21     1.726    2.526  133.4   16.8    70   12.8 
2025-09-13 00:00 UT   20 27 39.0   -26 01 03     1.736    2.527  132.4   17.1    70   12.9 
2025-09-14 00:00 UT   20 27 27.5   -25 58 38     1.747    2.528  131.5   17.4    70   12.9 
2025-09-15 00:00 UT   20 27 17.8   -25 56 07     1.757    2.529  130.5   17.6    70   12.9 
2025-09-16 00:00 UT   20 27 10.0   -25 53 29     1.768    2.529  129.5   17.9    71   12.9 
2025-09-17 00:00 UT   20 27 03.9   -25 50 46     1.779    2.530  128.5   18.1    71   12.9 
2025-09-18 00:00 UT   20 26 59.6   -25 47 56     1.790    2.531  127.6   18.3    71   13.0 
2025-09-19 00:00 UT   20 26 57.2   -25 44 60     1.801    2.532  126.6   18.6    71   13.0 
2025-09-20 00:00 UT   20 26 56.5   -25 41 58     1.812    2.532  125.6   18.8    72   13.0 
2025-09-21 00:00 UT   20 26 57.7   -25 38 51     1.823    2.533  124.7   19.0    72   13.0 
2025-09-22 00:00 UT   20 27 00.6   -25 35 38     1.835    2.534  123.8   19.2    72   13.1 
2025-09-23 00:00 UT   20 27 05.3   -25 32 19     1.846    2.535  122.8   19.4    72   13.1 
2025-09-24 00:00 UT   20 27 11.7   -25 28 55     1.858    2.536  121.9   19.6    72   13.1 
2025-09-25 00:00 UT   20 27 19.9   -25 25 25     1.870    2.536  121.0   19.8    72   13.1 
2025-09-26 00:00 UT   20 27 29.8   -25 21 50     1.882    2.537  120.0   20.0    73   13.1 
2025-09-27 00:00 UT   20 27 41.4   -25 18 10     1.894    2.538  119.1   20.2    73   13.2 
2025-09-28 00:00 UT   20 27 54.7   -25 14 25     1.906    2.539  118.2   20.4    73   13.2 
2025-09-29 00:00 UT   20 28 09.7   -25 10 35     1.918    2.539  117.3   20.5    73   13.2 
2025-09-30 00:00 UT   20 28 26.3   -25 06 40     1.931    2.540  116.4   20.7    73   13.2 


    Terminology:
            
    delta:  distance between minor planet and earth in AU
    radius: distance between minor planet and sun in AU
    magn:   magnitude (brightness) estimate    
    ra:     right ascension in hours (24h = 360deg)
    dec:    declination in degrees
    elong:  elongation in degrees (angle sun-earth-minor planet)    
    phase:  phase angle in degrees (angle sun-minor planet-earth)        
    AU:     Astronomical Unit (mean distance between earth and sun: 149597870.7 km
    

Orbital elements provided by the MPC (Minor Planet Center).
Calculations by a modified version of AAPlus, a C# implementation of the AA+ project by PJ Naughter from the algorithms presented in the book "Astronomical Algorithms" by Jean Meeus.
NGC2000 dso catalog and star labels from VizieR as provided by the Strasbourg astronomical Data Center.
Tycho2 catalog from the ESO archive.